Bellingham, WA

2:59 AM PDT on June 22, 2018 (GMT -0700)
Bellingham International

Weather History for KBLI - October, 2007

Change the Weather History Date:

Sunday, October 7, 2007

  Actual Average Record
Temperature  
Mean Temperature 55 °F 52 °F  
Max Temperature 60 °F 61 °F 75 °F (1951)
Min Temperature 48 °F 43 °F 31 °F (1983)
Degree Days  
Heating Degree Days 10 13  
Month to date heating degree days 87  
Cooling Degree Days 0 0  
Month to date cooling degree days 0  
Year to date cooling degree days 42  
Growing Degree Days 5 (Base 50)    
Moisture  
Dew Point 50 °F    
Average Humidity 83    
Maximum Humidity 100    
Minimum Humidity 63    
Precipitation  
Precipitation 0.41 in 0.09 in 0.89 in (1967)
Month to date precipitation 0.58  
Year to date precipitation 22.71  
Sea Level Pressure  
Sea Level Pressure 29.95 in    
Wind  
Wind Speed 17 mph (SSE)    
Max Wind Speed 30 mph    
Max Gust Speed 44 mph    
Visibility 8 miles    
Events Rain    
T = Trace of Precipitation, MM = Missing Value Source: NWS Daily Summary

Daily Weather History Graph

Daily Weather History Graph

Search for Another Location

Airport or City:

Astronomy

Oct. 07, 2007 Rise Set
Actual Time 7:18 AM PDT 6:36 PM PDT
Civil Twilight 6:46 AM PDT 7:08 PM PDT
Nautical Twilight 6:10 AM PDT 7:44 PM PDT
Astronomical Twilight 5:33 AM PDT 8:21 PM PDT
Moon 3:30 AM PDT (10/7) 5:23 PM PDT (10/7)
Length of Visible Light 12h 21m
Length of Day
11h 18m
Waning Crescent, 11% of the Moon is Illuminated
Oct 7
Waning Crescent
Oct 10
New
Oct 19
First Quarter
Oct 25
Full
Nov 1
Last Quarter

Hourly Weather History & Observations

Time (PDT) Temp. Dew Point Humidity Pressure Visibility Wind Dir Wind Speed Gust Speed Precip Events Conditions
12:53 AM 55.9 °F 48.0 °F 75% 29.99 in 10.0 mi SE 21.9 mph 25.3 mph N/A   Overcast
1:53 AM 55.9 °F 48.0 °F 75% 29.99 in 10.0 mi SE 18.4 mph 25.3 mph N/A   Overcast
2:53 AM 55.9 °F 48.9 °F 77% 29.99 in 10.0 mi SSE 23.0 mph 38.0 mph N/A   Overcast
3:53 AM 55.9 °F 48.9 °F 77% 30.00 in 10.0 mi SSE 18.4 mph 29.9 mph N/A   Overcast
4:53 AM 55.9 °F 48.9 °F 77% 29.98 in 10.0 mi SSE 21.9 mph 35.7 mph N/A   Overcast
5:53 AM 57.0 °F 48.9 °F 74% 29.95 in 10.0 mi SSE 21.9 mph 28.8 mph N/A   Overcast
6:53 AM 57.0 °F 48.9 °F 74% 29.94 in 10.0 mi SSE 21.9 mph 38.0 mph N/A   Overcast
7:53 AM 57.9 °F 50.0 °F 75% 29.91 in 10.0 mi SSE 20.7 mph 36.8 mph N/A   Overcast
8:53 AM 57.9 °F 50.0 °F 75% 29.91 in 10.0 mi SSE 25.3 mph 40.3 mph N/A   Overcast
9:53 AM 59.0 °F 48.9 °F 69% 29.88 in 10.0 mi SSE 26.5 mph 39.1 mph N/A   Overcast
10:50 AM 60.8 °F 48.2 °F 63% 29.85 in 10.0 mi SSE 28.8 mph 40.3 mph N/A   Overcast
10:53 AM 60.1 °F 48.9 °F 67% 29.87 in 10.0 mi SSE 29.9 mph 43.7 mph N/A   Overcast
11:53 AM 60.1 °F 48.9 °F 67% 29.88 in 10.0 mi SSE 21.9 mph 36.8 mph N/A   Mostly Cloudy
11:55 AM 60.8 °F 48.2 °F 63% 29.85 in 10.0 mi SSE 23.0 mph 41.4 mph N/A   Overcast
12:02 PM 60.8 °F 50.0 °F 68% 29.86 in 10.0 mi South 24.2 mph 40.3 mph 0.00 in Rain Light Rain
12:10 PM 57.2 °F 51.8 °F 82% 29.87 in 9.0 mi South 18.4 mph 33.4 mph 0.01 in Rain Light Rain
12:36 PM 57.2 °F 51.8 °F 82% 29.88 in 6.0 mi South 18.4 mph 31.1 mph 0.02 in Rain Light Rain
12:53 PM 55.9 °F 51.1 °F 84% 29.94 in 5.0 mi South 8.1 mph 20.7 mph 0.05 in Rain Light Rain
1:20 PM 55.4 °F 51.8 °F 88% 29.91 in 4.0 mi South 11.5 mph 19.6 mph 0.06 in Rain Rain
1:42 PM 55.4 °F 51.8 °F 88% 29.91 in 2.5 mi South 8.1 mph - 0.11 in Rain Rain
1:50 PM 55.4 °F 51.8 °F 88% 29.91 in 4.0 mi South 9.2 mph - N/A Rain Rain
1:53 PM 55.0 °F 52.0 °F 89% 29.93 in 2.5 mi South 5.8 mph - 0.15 in Rain Rain
2:10 PM 55.4 °F 53.6 °F 94% 29.91 in 3.0 mi Variable 5.8 mph - 0.05 in Rain Rain
2:15 PM 55.4 °F 53.6 °F 94% 29.92 in 1.8 mi Variable 4.6 mph - 0.08 in Rain Rain
2:34 PM 55.4 °F 53.6 °F 94% 29.90 in 3.0 mi South 10.4 mph 19.6 mph 0.17 in Rain Rain
2:36 PM 55.4 °F 53.6 °F 94% 29.90 in 3.0 mi SSE 13.8 mph 23.0 mph N/A Rain Rain
2:53 PM 55.0 °F 53.1 °F 93% 29.93 in 9.0 mi South 8.1 mph - 0.17 in Rain Light Rain
3:34 PM 53.6 °F 53.6 °F 100% 29.91 in 8.0 mi South 10.4 mph - 0.04 in Rain Light Rain
3:50 PM 53.6 °F 53.6 °F 100% 29.90 in 10.0 mi SSE 17.3 mph - N/A Rain Light Rain
3:53 PM 54.0 °F 53.1 °F 97% 29.93 in 10.0 mi South 10.4 mph - 0.04 in Rain Light Rain
4:07 PM 53.6 °F 51.8 °F 94% 29.91 in 10.0 mi South 15.0 mph 21.9 mph 0.00 in   Overcast
4:50 PM 51.8 °F 48.2 °F 88% 29.92 in 10.0 mi SSE 17.3 mph 23.0 mph N/A   Mostly Cloudy
4:53 PM 52.0 °F 48.9 °F 89% 29.95 in 10.0 mi South 10.4 mph - 0.00 in   Mostly Cloudy
5:53 PM 52.0 °F 48.0 °F 86% 29.99 in 10.0 mi SSE 8.1 mph - N/A   Clear
6:50 PM 51.8 °F 48.2 °F 88% 29.99 in 10.0 mi South 5.8 mph - N/A   Partly Cloudy
6:53 PM 52.0 °F 48.0 °F 86% 30.02 in 10.0 mi SSE 8.1 mph - N/A   Clear
7:50 PM 51.8 °F 46.4 °F 82% 30.02 in 10.0 mi SSE 11.5 mph - N/A   Mostly Cloudy
7:53 PM 52.0 °F 46.9 °F 83% 30.04 in 10.0 mi South 5.8 mph - N/A   Mostly Cloudy
9:50 PM 51.8 °F 46.4 °F 82% 30.06 in 10.0 mi SSE 11.5 mph - N/A   Overcast
9:53 PM 51.1 °F 46.9 °F 86% 30.08 in 10.0 mi South 4.6 mph - N/A   Overcast
10:08 PM 50.0 °F 46.4 °F 87% 30.06 in 10.0 mi South 4.6 mph - N/A   Overcast
10:53 PM 50.0 °F 46.0 °F 86% 30.10 in 10.0 mi South 3.5 mph - N/A   Overcast
11:53 PM 48.9 °F 44.1 °F 83% 30.12 in 10.0 mi Calm Calm - N/A   Scattered Clouds